Location: Newark
(15.4608°S, 41.1635°W)
Time: 02:23:30
(UTC+00:00)

XW-2B - Pass Details

Date: 29 February 2020
Orbit: 509 x 526 km, 97.5° (Epoch: 08 April)

Event Time Altitude Azimuth Distance (km) Brightness Sun altitude
Rises 08:13:46 0° 10° (N) 2,638 ? -8.3°
Reaches altitude 10° 08:15:51 10° 9° (N) 1,758 ? -7.8°
Maximum altitude 08:19:39 81° 280° (W) 539 ? -6.9°
Drops below altitude 10° 08:23:30 10° 193° (SSW) 1,780 ? -6.0°
Sets 08:25:37 0° 192° (SSW) 2,675 ? -5.5°
